Regional Weather Roundup
Issued by NWS State College, PA

Home | Current Version | Previous Version | Graphics & Text | Print | Product List | Glossary On
Versions: 1 2 3 4 5 6 7 8 9 10 11 12 13 14 15 16 17 18 19 20 21 22 23 24 25 26 27 28 29 30 31 32 33 34 35 36 37 38 39 40 41 42 43 44 45 46 47 48 49 50
000
ASUS41 KCTP 290103
RWRCTP

REGIONAL WEATHER ROUNDUP
NATIONAL WEATHER SERVICE STATE COLLEGE PA
900 PM EDT FRI JUL 28 2017

Note: "fair" indicates few or no clouds below 12,000 feet with no
significant weather and/or obstructions to visibility.

* = STATION THAT DOES NOT REPORT PRECIPITATION /E.G. RAIN...SNOW...ETC/
    THUNDER OR FOG.

PAZ002>004-007>009-013>016-020>023-029>032-290200-
WESTERN PENNSYLVANIA

CITY           SKY/WX    TMP DP  RH WIND       PRES   REMARKS
ERIE           PTCLDY    69  51  52 NE22G30   29.93R
MEADVILLE      PTCLDY    66  58  75 NE18G29   29.90R
FRANKLIN*      CLOUDY    68  59  73 N8        29.88R
NEW CASTLE     MOCLDY    71  62  73 N13G24    29.85R
BEAVER COUNTY  CLOUDY    72  63  73 N15G25    29.83R THUNDER
BUTLER*        MOCLDY    70  66  88 NE6       29.82R
PITTSBURGH INT LGT RAIN  75  66  73 NE14      29.79R
PITTSBURGH     CLOUDY    68  65  90 VRB6G16   29.79R
INDIANA*       CLOUDY    66  64  94 NE5       29.85S
LATROBE        LGT RAIN  66  66 100 N12       29.80R FOG
WASHINGTON CO* CLOUDY    70  66  88 NE5       29.79R
$$

PAZ004>006-010>012-017>019-024>028-033>037-041-042-045-046-049>053-290200-
CENTRAL PENNSYLVANIA

CITY           SKY/WX    TMP DP  RH WIND       PRES   REMARKS
BRADFORD       PTCLDY    63  57  81 NE12G20   29.92S
DUBOIS         CLOUDY    70  60  70 NE8       29.85R
CLEARFIELD     CLOUDY    68  65  90 NE7       29.85S
JOHNSTOWN      RAIN      62  62 100 E7        29.82F FOG
ALTOONA        LGT RAIN  63  63 100 NE5       29.84R
STATE COLLEGE  RAIN      68  64  88 NE10      29.84R
WILLIAMSPORT   CLOUDY    74  62  66 VRB5      29.82R
SELINSGROVE    LGT RAIN  70  69  97 CALM      29.81R
FT INDIANTOWN  LGT RAIN  73  68  83 NE6       29.80R
CAPITAL CITY   LGT RAIN  69  65  86 SW3       29.79R
HARRISBURG     LGT RAIN  69  67  93 W7        29.78R
YORK           RAIN      70  70 100 NW3       29.78R FOG
$$

PAZ038>040-043-044-047-048-054-055-060>062-067>071-290200-
EASTERN PENNSYLVANIA

CITY           SKY/WX    TMP DP  RH WIND       PRES   REMARKS
SCRANTON       MOCLDY    74  62  66 N9        29.85R
MOUNT POCONO   MOCLDY    68  62  81 NE9       29.88R
ALLENTOWN      CLOUDY    77  65  66 NE9       29.80R
QUAKERTOWN*    CLOUDY    77  66  69 E3        29.81R
READING        TSTM      73  72  96 S6        29.77R
LANCASTER      CLOUDY    74  72  93 CALM      29.77S FOG
COATESVILLE    CLOUDY    73  72  94 VRB5      29.80S
POTTSTOWN      CLOUDY    76  70  82 CALM      29.79S
BLUE BELL      CLOUDY    73  68  83 E5        29.79S
DOYLESTOWN     CLOUDY    76  69  79 CALM      29.79R
WILLOW GROVE   NOT AVBL
NORTH PHILA    CLOUDY    79  69  71 E10       29.79R
PHILADELPHIA   LGT RAIN  77  69  76 E8        29.78R
$$




USA.gov is the U.S. government's official web portal to all federal, state and local government web resources and services.